Theta_e
276 271 267 268 272 270 270 269 267 272 277 274 274 274 276 280 281 282 284 287 289 290 293 288 289 289 289 290 290 291 291 296 314 324 324 326 325 328 328 329 328 324 322 319
271 267 271 274 276 271 270 267 267 272 275 273 272 272 277 279 280 282 281 284 283 280 283 284 285 286 286 286 286 288 290 291 293 319 325 325 325 327 327 328 326 324 321 317
268 269 275 274 271 270 269 267 268 268 271 273 272 271 276 280 278 280 280 279 278 278 278 279 280 281 282 283 283 285 287 289 291 294 316 324 325 325 325 325 323 322 320 316
269 273 273 271 270 271 267 272 271 270 268 264 271 262 273 276 276 277 278 277 276 276 276 277 277 277 279 280 282 283 285 286 291 291 297 319 320 319 322 322 321 318 318 315
269 269 270 269 270 272 269 272 271 271 268 267 268 266 272 275 273 275 277 278 277 276 275 275 275 276 277 278 279 280 282 283 286 288 291 307 319 319 320 321 316 315 315 315
271 273 272 271 273 273 274 271 271 270 268 261 267 267 270 271 273 275 277 277 277 276 275 275 275 276 275 277 277 278 279 281 283 285 288 297 316 319 318 317 312 312 312 312
269 270 271 274 269 272 272 266 259 256 257 260 269 266 270 275 276 276 276 276 277 277 275 274 273 273 274 274 275 276 277 278 281 282 286 291 301 318 315 312 310 309 308 308
261 262 269 273 270 266 269 264 258 252 259 261 268 267 270 277 278 279 278 278 277 276 276 275 274 273 273 274 274 274 275 276 279 281 284 288 294 309 309 307 306 305 305 305
257 263 270 273 272 270 265 261 267 259 263 261 265 266 275 276 275 276 276 276 276 276 276 275 275 274 273 273 273 273 274 275 277 280 283 285 288 292 299 303 303 303 301 300
266 257 270 272 271 271 267 270 260 260 248 250 263 262 265 270 271 273 274 274 275 276 276 276 276 276 275 274 273 273 273 274 276 279 281 284 285 288 291 296 298 300 300 300
261 262 265 269 264 265 265 263 264 264 261 256 257 258 267 269 272 271 273 274 275 275 276 276 277 277 277 276 275 273 273 273 274 277 279 281 283 285 287 288 290 294 297 297
268 261 259 263 267 269 266 262 263 255 256 260 260 259 271 273 274 273 273 274 275 276 276 276 276 276 276 275 275 274 273 273 274 276 278 279 281 282 284 286 288 289 292 294
264 258 253 261 262 265 261 267 269 265 265 259 254 259 272 273 272 273 272 273 274 276 275 275 275 275 275 275 275 274 273 273 273 275 275 277 278 279 281 283 286 288 289 291
275 260 258 258 261 259 256 260 267 261 254 260 262 264 268 270 270 272 273 272 273 273 275 274 274 274 274 274 274 273 273 273 273 273 273 274 276 277 279 281 283 286 288 288
268 256 256 263 265 265 264 263 264 262 263 258 264 264 267 270 268 271 273 273 274 274 274 274 274 274 274 273 273 273 272 272 273 273 273 272 274 276 278 279 280 282 285 287
263 256 255 258 266 266 263 265 264 265 265 265 265 265 271 272 270 270 273 274 274 274 274 274 275 274 273 272 272 273 271 271 272 271 271 273 273 275 275 277 278 280 281 283
262 260 254 253 262 262 257 260 264 264 261 263 261 267 268 268 272 272 272 273 273 274 274 274 273 272 273 271 272 271 271 271 270 270 271 271 272 273 273 275 276 277 278 280
263 261 257 253 253 249 264 265 263 265 267 266 267 269 269 270 270 271 272 272 274 275 274 274 271 270 271 271 271 272 271 270 269 268 269 269 270 271 272 273 273 274 276 278
272 265 253 251 245 259 265 264 261 261 262 267 268 270 270 268 265 267 274 273 273 273 273 272 271 268 268 269 270 270 270 269 268 267 267 268 268 269 271 270 271 272 273 275
270 269 261 245 247 249 260 264 266 265 258 263 266 268 268 267 263 266 271 272 273 274 273 272 272 271 270 269 269 269 268 267 266 266 266 267 267 267 269 269 270 271 272 274
261 259 260 258 253 256 265 267 267 256 262 265 267 269 269 267 269 269 270 271 274 274 274 273 271 269 269 269 268 267 267 265 266 265 265 266 266 266 268 268 269 269 270 272
258 255 251 252 250 254 267 267 265 267 264 269 269 270 271 270 271 272 273 272 272 272 272 272 270 269 269 267 267 266 265 266 264 263 263 263 264 265 266 266 267 267 268 269
259 264 259 259 260 264 268 270 273 268 268 268 269 272 271 271 271 272 272 273 272 271 272 271 269 267 260 260 264 264 264 263 262 261 260 261 262 263 264 264 264 264 266 267
264 264 262 262 266 268 269 271 272 271 271 273 273 272 271 270 272 272 273 272 270 269 268 268 266 265 262 262 265 263 263 259 255 256 259 260 260 260 261 263 263 263 264 265
267 265 262 266 270 272 272 273 274 274 274 273 273 272 272 271 272 272 272 271 270 270 268 266 266 265 264 262 260 258 260 257 258 257 256 257 259 259 260 261 261 262 264 266
270 268 266 266 272 272 272 274 274 272 271 273 272 272 272 272 271 271 269 269 267 266 265 264 263 262 262 261 261 260 258 258 256 256 257 257 258 258 258 258 258 263 265 267
Wind_Speed
8 14 10 7 5 2 5 11 19 17 11 20 8 29 31 23 20 24 26 24 26 28 20 19 19 18 18 17 17 16 16 17 9 9 11 12 13 12 12 12 15 16 15 16
7 14 6 6 3 9 9 16 13 15 15 21 18 32 28 19 11 18 24 24 23 25 23 22 22 21 19 18 18 18 17 17 12 10 10 11 12 12 12 11 12 15 17 17
12 1 5 6 5 15 12 6 14 20 21 14 13 6 22 22 19 23 25 20 22 22 24 23 24 22 20 20 21 19 19 19 16 14 11 9 10 9 8 8 9 12 15 16
9 3 7 7 11 14 8 10 19 21 15 6 7 10 10 20 23 24 22 23 22 23 20 21 22 23 23 21 19 20 19 19 16 17 13 17 14 14 11 11 8 10 16 17
2 4 4 8 12 13 9 23 20 18 13 10 5 1 6 14 19 23 20 19 19 20 21 22 21 21 20 20 19 19 19 19 19 18 14 14 17 12 9 10 12 12 12 14
2 2 1 2 12 6 17 14 10 1 3 2 5 10 2 9 11 17 16 16 17 19 22 20 20 19 18 18 19 19 20 20 20 20 19 16 18 16 11 10 10 10 9 10
6 3 2 1 5 4 14 8 5 9 7 5 8 10 3 7 8 11 15 16 16 16 17 21 23 23 22 22 22 19 21 21 21 22 20 18 17 16 13 12 10 10 8 9
4 6 3 6 2 3 7 4 5 2 6 10 17 4 2 5 5 8 10 12 14 16 15 18 21 19 20 21 20 20 21 21 22 21 21 17 18 8 6 9 7 8 8 8
4 5 2 2 1 3 5 5 5 2 6 5 6 6 11 12 16 15 14 15 16 16 17 17 18 19 18 19 20 19 20 20 21 21 18 18 17 16 8 4 7 7 5 6
2 5 3 3 2 2 6 4 4 4 5 7 8 7 6 15 19 17 16 16 16 15 15 14 15 17 17 17 16 18 18 19 20 20 17 15 16 16 14 9 7 1 4 7
4 5 3 3 3 4 2 2 3 2 3 3 8 8 6 7 10 13 14 13 14 14 15 14 14 15 15 17 17 17 18 20 20 19 18 18 17 17 14 12 11 8 3 1
4 4 6 9 2 2 5 6 5 6 7 4 3 13 9 8 8 7 13 10 12 12 13 13 12 13 15 16 17 17 18 18 19 18 18 18 17 17 17 15 14 12 9 2
3 2 5 6 7 6 3 6 5 3 3 10 4 11 5 7 8 8 7 10 10 11 11 12 11 12 12 14 15 16 17 18 18 18 18 19 19 18 17 16 15 13 12 9
7 4 9 8 7 5 3 5 7 7 4 5 19 25 22 13 6 9 13 6 7 8 8 8 9 10 11 12 13 15 16 17 17 17 17 19 19 19 17 15 15 14 13 12
6 6 5 12 17 16 21 21 16 18 18 11 20 17 20 11 7 7 7 9 8 7 7 7 10 9 9 11 11 11 14 16 16 16 18 18 18 18 17 17 16 15 14 12
2 5 3 10 13 14 19 20 19 20 22 24 26 31 23 18 5 6 8 9 11 7 6 7 9 10 10 11 11 11 10 12 13 15 17 17 18 18 18 18 17 16 16 16
5 3 4 8 8 9 13 12 16 7 7 9 14 21 3 4 6 7 8 9 11 10 6 5 5 5 7 7 10 10 9 10 11 13 14 16 16 17 18 17 17 17 17 15
4 6 3 7 5 2 9 3 5 10 9 16 14 14 8 9 6 6 8 10 13 10 7 5 4 4 4 4 6 7 9 10 12 14 14 15 16 15 16 15 16 16 13 14
17 6 3 3 4 12 11 2 5 8 11 12 19 19 16 4 3 6 11 10 14 10 6 5 5 4 2 2 5 6 7 8 10 12 14 13 15 14 14 15 15 14 13 12
11 11 6 3 3 9 7 4 3 4 9 6 8 12 8 4 2 6 8 6 11 9 5 5 5 3 2 2 4 6 5 7 8 11 12 12 12 13 12 12 13 12 12 11
6 3 18 11 6 14 14 5 4 7 11 5 6 9 7 7 9 7 4 6 9 9 7 5 5 4 4 1 2 3 5 4 5 7 9 10 11 12 11 11 10 11 11 11
10 10 7 3 4 15 10 7 9 10 4 3 4 7 8 8 8 10 12 11 8 10 8 6 5 4 4 2 1 2 4 2 4 6 8 9 9 9 9 11 9 9 9 9
4 12 9 15 15 5 10 5 11 2 5 4 4 8 9 9 12 12 11 11 10 8 7 5 5 3 1 1 3 2 1 1 3 7 8 7 8 8 9 9 9 8 7 6
6 4 6 1 12 23 14 14 13 10 13 13 10 10 8 12 13 13 10 8 6 5 5 3 4 2 3 1 2 3 2 1 2 4 5 7 7 6 6 6 6 6 5 6
7 7 7 18 22 22 20 19 21 16 15 10 8 9 12 11 14 11 9 7 6 4 4 4 3 2 2 1 3 2 3 2 7 6 4 4 4 6 7 7 6 7 6 8
11 19 12 19 18 13 17 15 11 10 6 10 11 12 10 8 11 7 6 1 2 4 3 2 1 1 1 1 4 4 3 6 6 8 6 5 5 4 6 6 6 10 14 15
Wind_Direction
38 62 38 332 48 50 296 305 300 305 303 335 329 286 299 304 302 288 288 287 291 295 325 9 0 3 359 358 355 343 338 331 272 224 221 218 217 219 214 209 196 188 183 183
67 55 327 338 6 352 337 313 309 299 341 322 296 296 302 302 290 340 352 324 7 4 358 357 355 356 358 350 348 343 336 327 321 279 231 224 216 215 214 210 198 189 185 183
87 236 322 23 357 353 326 309 316 295 318 279 326 317 34 15 17 9 6 1 8 0 349 352 349 350 349 350 345 341 333 328 317 303 281 235 228 220 208 209 199 198 183 182
81 331 13 0 2 355 320 331 307 295 321 312 42 291 35 4 15 14 4 1 354 353 353 348 350 345 346 344 341 338 333 331 325 322 305 242 226 218 209 202 192 189 190 189
258 334 346 356 346 340 274 309 296 286 275 311 356 208 343 14 11 3 356 356 353 348 349 347 346 345 341 342 343 337 334 334 333 325 310 284 231 230 212 197 180 189 195 197
89 280 107 253 313 311 315 307 311 57 158 355 258 15 29 14 353 343 348 350 350 351 347 345 344 344 343 343 345 340 341 338 338 331 326 320 246 228 214 194 179 188 190 194
333 324 298 334 313 320 348 357 8 7 9 261 344 335 84 12 353 345 336 342 350 352 354 345 348 348 346 347 346 344 343 341 342 338 334 333 322 230 214 187 188 185 192 196
38 335 11 356 80 240 341 59 97 303 314 299 298 246 113 6 359 357 346 340 349 350 357 350 343 347 344 346 346 345 344 344 345 343 341 343 344 320 174 171 174 184 193 195
34 270 326 263 52 100 319 29 185 206 288 274 265 298 209 12 6 360 356 354 355 350 352 350 341 345 348 348 349 349 349 347 346 346 346 352 354 352 346 165 159 174 160 165
200 318 211 294 136 80 121 232 44 27 12 304 279 299 270 355 348 349 352 353 347 345 345 339 343 344 346 349 350 353 355 354 348 348 352 354 359 0 0 22 11 317 169 158
125 113 295 7 204 180 350 30 56 138 169 237 310 261 209 10 344 337 339 345 339 340 340 340 339 339 340 347 355 357 357 360 360 354 353 360 4 6 9 15 9 2 5 337
200 161 270 238 248 210 163 188 145 122 274 242 268 271 275 356 349 337 322 336 334 339 338 338 339 341 347 348 354 358 355 1 2 358 356 4 6 9 12 12 8 2 353 352
211 278 329 343 2 4 171 196 186 152 186 223 172 256 225 17 318 316 311 324 325 333 336 338 342 348 354 345 352 356 358 359 359 2 3 6 10 9 9 7 5 10 7 358
171 192 191 202 214 135 243 217 212 158 190 254 239 273 280 289 293 312 314 305 302 314 329 330 342 346 356 349 353 357 358 357 357 1 7 6 7 9 7 6 7 8 11 13
147 229 205 251 270 273 265 259 246 221 227 225 267 276 276 274 250 265 278 291 308 310 322 330 343 341 349 354 350 3 3 358 356 2 6 5 1 3 5 10 10 9 10 14
20 277 58 286 267 258 265 254 241 238 242 243 257 269 275 262 242 268 281 280 293 294 302 323 333 332 343 352 342 346 360 359 357 6 1 359 2 2 3 4 7 11 14 11
159 170 45 270 343 327 294 246 201 200 202 198 222 245 218 252 263 274 266 286 271 278 271 282 300 317 327 337 340 339 357 355 3 7 4 357 358 360 360 358 0 5 9 11
170 127 145 269 3 274 243 215 174 206 239 214 258 263 229 233 236 255 248 255 271 265 263 253 261 275 294 325 330 338 359 6 4 9 5 358 356 355 354 355 357 356 358 6
212 172 283 231 207 301 285 300 170 164 275 222 237 258 264 247 27 282 262 236 242 255 244 232 227 235 228 311 331 340 4 4 6 6 357 352 351 349 356 352 350 347 347 357
201 189 184 72 192 241 241 240 164 124 287 234 195 244 226 117 270 261 262 229 240 244 232 224 229 248 227 331 333 340 351 359 1 358 350 346 343 346 351 344 344 342 341 341
149 197 222 217 256 280 250 214 158 85 243 205 191 224 193 192 212 236 264 247 228 223 240 226 210 218 195 166 327 334 328 342 347 341 338 340 343 340 346 340 339 339 340 336
167 168 202 119 197 273 185 130 198 216 277 209 208 226 215 226 258 265 266 256 234 237 233 235 228 217 164 135 183 275 292 351 333 335 330 331 332 335 340 334 336 331 335 336
249 198 191 189 212 244 205 220 234 159 227 244 213 236 232 259 264 262 257 256 238 219 219 211 216 213 271 288 159 305 274 112 341 326 317 311 317 322 332 329 330 327 331 332
258 187 226 93 225 244 247 253 258 254 256 273 253 255 241 252 263 267 264 254 233 212 200 165 162 202 258 247 338 283 327 315 304 270 288 305 310 309 311 317 309 312 316 327
192 146 216 255 269 279 264 263 272 270 271 269 261 242 254 256 267 257 264 241 224 198 141 135 177 235 255 271 279 277 329 326 318 307 283 277 298 310 313 307 301 301 299 302
211 235 231 254 254 255 276 270 262 255 246 276 279 284 274 251 264 263 256 214 155 145 124 168 239 240 264 315 298 313 338 329 317 310 308 310 305 304 303 301 301 304 307 312